sat.trackr.live / text

‹ back to catalog

QIANFAN-63

NORAD 62793 · 2025-016J

PAYLOAD ACTIVE UNKNOWN

§ Identity

Operator
Country
PRC
Launch date
2025-01-23
Launch site
TAISC
Launch vehicle
Mass (kg)
RCS (m²)

External: N2YO · Heavens-Above · Gunter

§ Orbital elements

Epoch: 2026-05-25T03:37:55.020000Z

Period
106.59 min
Inclination
88.9734°
Eccentricity
0.0013979
Mean motion
13.51004642 rev/d
Perigee alt
1,058.2 km
Apogee alt
1,079.0 km
Semi-major
7,446.7 km
B*
8.8360e-5
RAAN
86.1111°
Arg perigee
232.9688°
Mean anomaly
127.0185°
Rev number
6,933

§ Raw data

QIANFAN-631 62793U 25016J   26145.15133125  .00000069  00000+0  88360-4 0  99932 62793  88.9734  86.1111 0013979 232.9688 127.0185 13.51004642 69334

JSON: /api/v1/satellites/62793 · /tle

For live sub-satellite position, see the globe view (requires WebGL).

§ Visibility from observer

Set your observer location to see the next 7 days of passes ≥ 10°. The values pass through the URL so the page stays shareable.

No JS? Fill the form by hand. The geolocation button needs JavaScript.